User: anonymous
Location: Caltech
(34.1382°N, 118.1253°W)
Time: 21:37:16
(UTC-07:00)
Language:

Cosmos 2219 - Orbit

View from above orbital plane
View from above orbital plane
View from above satellite
View from above satellite

Ground track
Ground track

The orbit data is extracted from the following two-line orbital elements,

1 22219U 92076A   14209.69940542 -.00000294  00000-0 -13088-3 0  5610
2 22219 071.0585 240.2418 0018424 207.8807 293.3987 14.13499619119207
Epoch (UTC): 28 July 2014 16:47:08
Eccentricity: 0.0018424
inclination: 71.0585°
perigee height: 834 km
apogee height: 861 km
right ascension of ascending node: 240.2418°
argument of perigee: 207.8807°
revolutions per day: 14.13499619
mean anomaly at epoch: 293.3987°
orbit number at epoch: 11920

The dashed part of the orbit path shows where the satellite is in the earth's shadow,  

DLR